{"data":{"norad_id":61542,"intl_designator":"2024-184L","name":"STARLINK-11322 [DTC]","alt_names":[],"object_type":"PAYLOAD","status":"ACTIVE","operator":null,"country":"US","launch_date":"2024-10-15","launch_site_code":"AFWTR","launch_vehicle":null,"mission":null,"orbit_class":"UNKNOWN","rcs_meters":null,"size_class":null,"mass_kg":null,"dimensions":null,"purposes":["comms"],"wikipedia_slug":null,"has_3d_model":false,"image_url":null,"decayed_at":null,"tle_current":{"epoch":"2026-09-21T12:50:51.789696Z","epoch_age_seconds":102719,"freshness":"FRESH","line1":"1 61542U 24184L   26264.53532164 -.00001064  00000+0 -39240-5 0  9991","line2":"2 61542  53.1603 351.0691 0001363  78.1758 281.9413 15.69695776112230","mean_motion":15.69695776,"eccentricity":0.0001363,"inclination_deg":53.1603,"raan_deg":351.0691,"arg_perigee_deg":78.1758,"mean_anomaly_deg":281.9413,"bstar":-3.924e-6,"rev_number":11223,"period_min":91.737521500472,"perigee_km":358.84907799336,"apogee_km":360.68583074762,"semimajor_km":6737.9044543705,"source":"CELESTRAK","updated_at":"2026-09-22T09:00:49.366150Z"}}}